Charter Quote
Worldwide +1-877-727-2538 Call
Select Language Lang
SAFETY RELIABILITY EXPERIENCE

Private Jet Charter Services - Abumusa Island Airport (OIBA)

Paramount Business Jets offers private jet charter flights and luxury airliner charters to and from Abumusa Island Airport.

AIRPORT INFORMATION
ICAOOIBA
LOCATIONAbumusa Island, Iran
FACILITY TYPEAIRPORT
Runway Length (ft) Width (ft) Surface Type Elevation (ft)
26/08 9796 148 ASP 22.98361

At Paramount Business Jets you can hire chartered private jets to and from Abumusa Island Airport with as little as 4 hours of notice. All flights booked via Paramount Business Jets are operated by certified direct air carriers that meet and exceed the FAA part 135 and 121 protocol or a foreign equivalent safety authority. Furthermore, Paramount Business Jets subscribes to ARGUS for their third party safety checks of operators, aircraft, and crews prior each and every flight to and from Abumusa Island Airport and worldwide.

  • Quote a trip using Abumusa Island Airport or call us 24/7 - 365 days a year at +1-877-727-2538.
Questions? Call +1-877-727-2538

METAR Weather Data at Abumusa Island Airport, OIBA

STATIONOIBA
OBSERVEDWed Oct 23, 15:00 UTC
NOWWed Oct 23, 16:22 UTC
AGE82 min ago
WINDNNW at 7 mph
VISIBILITY4.8 miles
CONDITIONShaze
METAROIBA 231500Z 33006KT 3000 HZ NSC 30/23 Q1009

Call us on +1-877-727-2538 (24 Hours) to Hire a Private Jet or Get a Quick Quote.

Find Airports Near any Location

Processing
...